Location: Newark
(2.6153°S, 29.9989°E)
Time: 17:54:27
(UTC+00:00)

N. Korean satellite - Pass Details

Date: 30 August 2019
Orbit: 455 x 508 km, 97.2° (Epoch: 15 September)

Event Time Altitude Azimuth Distance (km) Brightness Sun altitude
Rises 03:05:00 0° 30° (NNE) 2,468 10.7 -14.2°
Reaches altitude 10° 03:07:15 10° 43° (NE) 1,593 10.0 -13.6°
Maximum altitude 03:10:09 26° 101° (E) 928 8.8 -12.9°
Drops below altitude 10° 03:13:03 10° 160° (SSE) 1,593 9.3 -12.2°
Sets 03:15:18 0° 173° (S) 2,470 10.1 -11.7°
